GLOBALSTAR M082

Last updated on Sat Sep 05 2026 00:03:16 GMT+0000 (Coordinated Universal Time)

1 38042U 11080C 26247.59168108 -.00000105 00000+0 -72039-5 0 9999 2 38042 52.0066 92.8014 0000970 89.1575 305.8542 12.62262702679620
UTC large
Height (km)
Speed (km/s)
/
Latitude / Longitude
Inclination (degrees)
Orbital Period (minutes)
Azimuth
Elevation
Range (km)
Doppler Factor

Next 0 passes for location: London (51.5072 / 0.1276)

No passes found over London.
GLOBALSTAR M082